Flag for Germany Weather past 2 weeks in Vreden, North Rhine-Westphalia, Germany

Now
60 °F

Low clouds.


Feels Like: 60 °F
Forecast: 54 / 71 °F
Wind: 3 mph from Northwest

Location: Twenthe

Current Time: Sep 2, 2014 at 11:50:12 AM

Latest Report: Sep 2, 2014 at 11:00 AM


Visibility: 4 mi

Pressure: 30.20 "Hg

Humidity: 94%

Dew point: 58 °F

Location of VredenLocation

Historic Weather in Vreden — Graph

°F

Vreden temperature yesterday

Maximum temperature yesterday: 67 °F (at 2:00 PM)
Minimum temperature yesterday: 45 °F (at 3:00 AM)
Average temperature yesterday: 56 °F

Past Weeks' High & Low Weather Summary

 TemperatureHumidityPressure
High72 °F (Aug 28, 3:00 PM)100% (Aug 21, 2:00 AM)30.19 "Hg (Aug 21, 2:00 AM)
Low42 °F (Aug 27, 6:00 AM)46% (Aug 27, 5:00 PM)29.61 "Hg (Aug 18, 10:00 AM)
Average56 °F86%29.94 "Hg
* Reported Aug 18 10:00 AM — Sep 2 10:00 AM, Vreden, Weather by CustomWeather, © 2014

Note: Actual official high and low records may vary slightly from our data, if they occured in-between our weather recording intervals... More about our weather records

Advertising

Vreden weather history for previous 24 hours

 ConditionsComfort  
Time TempWeatherWind HumidityBarometerVisibility
10:00 AM
Sep 2
56 °FDrizzle. Low clouds.2 mph99%30.19 "Hg2 mi
9:00 AM54 °FFog.1 mph99%30.19 "Hg4 mi
8:00 AM49 °FOvercast.1 mph100%30.18 "Hg1 mi
7:00 AM46 °FDense fog.No wind99%30.17 "Hg0 mi
6:00 AM45 °FDense fog.No wind99%30.16 "Hg0 mi
5:00 AM46 °FLow clouds.N/A100%30.16 "Hg0 mi
4:00 AM47 °FClear.No wind100%30.16 "Hg0 mi
3:00 AM47 °FClear.1 mph100%30.16 "Hg0 mi
2:00 AM48 °FClear.1 mph99%30.16 "Hg0 mi
1:00 AM50 °FClear.No wind99%30.16 "Hg0 mi
12:00 AM52 °FPassing clouds.No wind100%30.16 "Hg0 mi
11:00 PM
Sep 1
54 °FFog.No wind99%30.16 "Hg2 mi
10:00 PM56 °FOvercast.No wind96%30.15 "Hg10 mi
9:00 PM59 °FOvercast.1 mph85%30.14 "Hg22 mi
8:00 PM61 °FOvercast.2 mph79%30.13 "Hg25 mi
7:00 PM64 °FPartly sunny.1 mph83%30.12 "Hg19 mi
6:00 PM66 °FOvercast.2 mph67%30.12 "Hg22 mi
5:00 PM66 °FOvercast.3 mph70%30.12 "Hg22 mi
4:00 PM65 °FOvercast.3 mph70%30.12 "Hg19 mi
3:00 PM67 °FOvercast.3 mph61%30.13 "Hg19 mi
2:00 PM67 °FSunny.2 mph65%30.13 "Hg22 mi
1:00 PM63 °FOvercast.3 mph73%30.14 "Hg22 mi
12:00 PM64 °FPartly sunny.3 mph79%30.13 "Hg19 mi
11:00 AM60 °FLow clouds.2 mph88%30.13 "Hg11 mi
Weather by CustomWeather, © 2014

See weather overviewHow to use our weather pages